Change the Weather History Date:

Saturday, February 22, 2014

  Actual Average (KDAY) Record (KDAY)
Temperature  
Mean Temperature 46 °F 33 °F  
Max Temperature 57 °F 41 °F 69 °F (1922)
Min Temperature 34 °F 25 °F -10 °F (1963)
Degree Days  
Heating Degree Days 20 32  
Month to date heating degree days 765  
Since 1 July heating degree days 4088  
Cooling Degree Days 0 0  
Month to date cooling degree days 0  
Year to date cooling degree days 0  
Moisture  
Dew Point 21 °F    
Average Humidity 42    
Maximum Humidity 70    
Minimum Humidity 18    
Precipitation  
Precipitation 0.00 in 0.08 in 0.84 in (1975)
Month to date precipitation 1.75  
Year to date precipitation 4.46  
Snow  
Snow 0.00 in 0.20 in 3.90 in (2001)
Month to date snowfall 4.7  
Since 1 July snowfall 18.1  
Snow Depth -    
Sea Level Pressure  
Sea Level Pressure 30.00 in    
Wind  
Wind Speed 9 mph (SW)    
Max Wind Speed 17 mph    
Max Gust Speed 22 mph    
Visibility 10 miles    
Events      
T = Trace of Precipitation, MM = Missing Value Source: NWS Daily Summary

Daily Weather History Graph

Daily Weather History Graph

Search for Another Location

Airport or City:

Trip Planner

Search our weather history database for the weather conditions in past years. The results will help you decide how hot, cold, wet, or windy it might be!

Date:

Astronomy

Feb. 22, 2014 Rise Set
Actual Time 7:20 AM EST 6:22 PM EST
Civil Twilight 6:53 AM EST 6:49 PM EST
Nautical Twilight 6:22 AM EST 7:20 PM EST
Astronomical Twilight 5:50 AM EST 7:51 PM EST
Moon 1:14 AM EST (2/22) 11:33 AM EST (2/22)
Length of Visible Light 11h 56m
Length of Day
11h 01m
Waning Gibbous, 50% of the Moon is Illuminated
Feb 22
Waning Gibbous
Feb 22
Last Quarter
Mar 1
New
Mar 8
First Quarter
Mar 16
Full

Hourly Weather History & Observations

Time (EST) Temp. Windchill Dew Point Humidity Pressure Visibility Wind Dir Wind Speed Gust Speed Precip Events Conditions
12:15 AM 34.9 °F 27.7 °F 17.4 °F 49% 29.97 in 10.0 mi SSW 9.2 mph - N/A   Clear
12:35 AM 35.1 °F 27.9 °F 15.3 °F 44% 29.97 in 10.0 mi SSW 9.2 mph - N/A   Clear
12:55 AM 35.4 °F 27.8 °F 14.9 °F 43% 29.96 in 10.0 mi SSW 10.4 mph - N/A   Scattered Clouds
1:15 AM 35.1 °F 27.9 °F 15.4 °F 45% 29.95 in 10.0 mi SSW 9.2 mph - N/A   Scattered Clouds
1:35 AM 34.2 °F 27.5 °F 16.9 °F 49% 29.95 in 10.0 mi South 8.1 mph - N/A   Scattered Clouds
1:55 AM 37.6 °F 31.0 °F 16.7 °F 43% 29.95 in 10.0 mi SSW 9.2 mph - N/A   Mostly Cloudy
2:15 AM 36.1 °F 29.9 °F 16.9 °F 46% 29.95 in 10.0 mi SSW 8.1 mph - N/A   Overcast
2:35 AM 37.6 °F 31.0 °F 17.8 °F 45% 29.95 in 10.0 mi SW 9.2 mph - N/A   Overcast
2:55 AM 38.3 °F 30.5 °F 16.9 °F 42% 29.95 in 10.0 mi SW 12.7 mph - N/A   Overcast
3:15 AM 38.8 °F 32.1 °F 15.6 °F 39% 29.96 in 10.0 mi SW 10.4 mph - N/A   Mostly Cloudy
3:35 AM 38.8 °F 31.6 °F 16.7 °F 41% 29.96 in 10.0 mi SW 11.5 mph - N/A   Mostly Cloudy
3:55 AM 38.1 °F 30.2 °F 16.7 °F 42% 29.96 in 10.0 mi SW 12.7 mph - N/A   Mostly Cloudy
4:15 AM 38.8 °F 31.2 °F 16.7 °F 41% 29.97 in 10.0 mi SW 12.7 mph - N/A   Overcast
4:35 AM 38.8 °F 30.8 °F 16.0 °F 40% 29.95 in 10.0 mi SSW 13.8 mph - N/A   Overcast
4:55 AM 37.6 °F 31.0 °F 17.8 °F 45% 29.96 in 10.0 mi SW 9.2 mph - N/A   Mostly Cloudy
5:15 AM 37.6 °F 30.5 °F 17.6 °F 44% 29.97 in 10.0 mi SW 10.4 mph - N/A   Mostly Cloudy
5:35 AM 37.6 °F 30.5 °F 19.4 °F 48% 29.98 in 10.0 mi SW 10.4 mph - N/A   Scattered Clouds
5:55 AM 37.6 °F 31.6 °F 18.0 °F 45% 30.00 in 10.0 mi West 8.1 mph - N/A   Clear
6:15 AM 37.6 °F 32.3 °F 18.3 °F 46% 30.00 in 10.0 mi WSW 6.9 mph - N/A   Clear
6:35 AM 37.4 °F 30.8 °F 20.3 °F 50% 30.01 in 10.0 mi SW 9.2 mph - N/A   Clear
6:55 AM 35.1 °F 27.9 °F 19.6 °F 53% 30.03 in 10.0 mi SW 9.2 mph - N/A   Clear
7:15 AM 35.1 °F 28.6 °F 19.8 °F 54% 30.03 in 10.0 mi SW 8.1 mph - N/A   Clear
7:35 AM 35.1 °F 28.6 °F 20.5 °F 55% 30.04 in 10.0 mi WSW 8.1 mph - N/A   Clear
7:55 AM 35.1 °F 28.6 °F 20.5 °F 55% 30.05 in 10.0 mi SW 8.1 mph - N/A   Clear
8:15 AM 37.6 °F 34.0 °F 22.1 °F 54% 30.06 in 10.0 mi SW 4.6 mph - N/A   Clear
8:35 AM 38.1 °F 33.7 °F 22.5 °F 53% 30.07 in 10.0 mi SW 5.8 mph - N/A   Clear
8:55 AM 40.1 °F 36.1 °F 21.0 °F 47% 30.08 in 10.0 mi SW 5.8 mph - N/A   Clear
9:15 AM 41.4 °F 36.8 °F 20.8 °F 44% 30.08 in 10.0 mi SW 6.9 mph - N/A   Clear
9:35 AM 43.3 °F 39.2 °F 21.9 °F 43% 30.08 in 10.0 mi SW 6.9 mph - N/A   Clear
9:55 AM 45.1 °F 40.8 °F 22.5 °F 41% 30.08 in 10.0 mi SSW 8.1 mph - N/A   Clear
10:15 AM 47.7 °F - 24.3 °F 40% 30.08 in 10.0 mi SW 6.9 mph - N/A   Clear
10:35 AM 47.7 °F - 24.3 °F 40% 30.08 in 10.0 mi SW 9.2 mph - N/A   Clear
10:55 AM 47.7 °F - 22.8 °F 38% 30.08 in 10.0 mi SW 9.2 mph - N/A   Clear
11:15 AM 48.6 °F - 22.6 °F 36% 30.07 in 10.0 mi SSW 9.2 mph - N/A   Clear
11:35 AM 50.2 °F - 23.0 °F 35% 30.06 in 10.0 mi SSW 9.2 mph - N/A   Clear
11:55 AM 52.7 °F - 23.9 °F 33% 30.06 in 10.0 mi SSW 9.2 mph - N/A   Clear
12:15 PM 52.7 °F - 23.5 °F 32% 30.06 in 10.0 mi SSW 11.5 mph - N/A   Scattered Clouds
12:35 PM 52.7 °F - 23.2 °F 32% 30.06 in 10.0 mi SW 9.2 mph - N/A   Mostly Cloudy
12:55 PM 52.7 °F - 19.8 °F 27% 30.05 in 10.0 mi WSW 8.1 mph - N/A   Scattered Clouds
1:15 PM 55.4 °F - 19.8 °F 25% 30.03 in - SSW 6.9 mph - N/A   Clear
1:35 PM 55.4 °F - 17.8 °F 23% 30.02 in - SW 12.7 mph 17.3 mph N/A   Clear
1:55 PM 56.3 °F - 18.9 °F 23% 30.00 in 10.0 mi SW 10.4 mph 17.3 mph N/A   Clear
2:15 PM 57.7 °F - 17.2 °F 21% 29.99 in 10.0 mi SW 17.3 mph 21.9 mph N/A   Clear
2:35 PM 57.7 °F - 16.9 °F 20% 29.99 in 10.0 mi SW 11.5 mph 21.9 mph N/A   Clear
2:55 PM 57.7 °F - 15.4 °F 19% 29.98 in 10.0 mi SW 11.5 mph 21.9 mph N/A   Clear
3:15 PM 57.7 °F - 14.7 °F 18% 29.98 in 10.0 mi SW 11.5 mph 19.6 mph N/A   Clear
3:35 PM 57.7 °F - 15.3 °F 19% 29.98 in 10.0 mi SSW 12.7 mph 19.6 mph N/A   Clear
3:55 PM 57.7 °F - 14.2 °F 18% 29.97 in 10.0 mi SW 11.5 mph 18.4 mph N/A   Clear
4:15 PM 57.7 °F - 16.2 °F 20% 29.97 in 10.0 mi SW 12.7 mph 17.3 mph N/A   Clear
4:35 PM 57.7 °F - 16.5 °F 20% 29.96 in 10.0 mi SW 10.4 mph - N/A   Clear
4:55 PM 57.7 °F - 17.8 °F 21% 29.95 in 10.0 mi SW 10.4 mph - N/A   Clear
5:15 PM 55.8 °F - 15.1 °F 20% 29.95 in 10.0 mi SW 10.4 mph - N/A   Clear
5:35 PM 55.4 °F - 17.2 °F 22% 29.95 in 10.0 mi WSW 5.8 mph - N/A   Clear
5:55 PM 55.4 °F - 17.2 °F 22% 29.95 in 10.0 mi West 6.9 mph - N/A   Clear
6:15 PM 52.7 °F - 18.9 °F 26% 29.95 in 10.0 mi WNW 4.6 mph - N/A   Clear
6:35 PM 45.1 °F 42.8 °F 24.8 °F 45% 29.96 in 10.0 mi North 4.6 mph - N/A   Clear
6:55 PM 47.7 °F - 30.2 °F 51% 29.97 in 10.0 mi NNE 6.9 mph - N/A   Clear
7:15 PM 47.7 °F - 29.7 °F 50% 29.97 in 10.0 mi NNE 6.9 mph - N/A   Clear
7:35 PM 47.7 °F - 31.6 °F 54% 29.98 in 10.0 mi NNE 11.5 mph 17.3 mph N/A   Clear
7:55 PM 45.1 °F 39.9 °F 31.5 °F 59% 29.98 in 10.0 mi NNE 10.4 mph - N/A   Clear
8:15 PM 42.8 °F 36.2 °F 30.0 °F 61% 29.99 in 10.0 mi NNE 12.7 mph - N/A   Clear
8:35 PM 41.5 °F 35.9 °F 28.9 °F 61% 30.01 in 10.0 mi NNE 9.2 mph - N/A   Clear
8:55 PM 40.5 °F 32.5 °F 27.1 °F 59% 30.01 in 10.0 mi NNE 15.0 mph - N/A   Clear
9:15 PM 39.7 °F 33.7 °F 27.3 °F 61% 30.03 in 10.0 mi NNE 9.2 mph - N/A   Clear
9:35 PM 38.8 °F 33.2 °F 26.2 °F 61% 30.03 in 10.0 mi NE 8.1 mph - N/A   Clear
9:55 PM 38.8 °F 33.8 °F 25.5 °F 59% 30.03 in 10.0 mi NNE 6.9 mph - N/A   Clear
10:15 PM 38.1 °F 33.7 °F 25.7 °F 61% 30.04 in 10.0 mi NE 5.8 mph - N/A   Clear
10:35 PM 38.5 °F 32.7 °F 26.4 °F 62% 30.03 in 10.0 mi NE 8.1 mph - N/A   Clear
10:55 PM 37.6 °F 32.3 °F 26.4 °F 64% 30.05 in 10.0 mi NNE 6.9 mph - N/A   Clear
11:15 PM 37.6 °F 31.0 °F 27.3 °F 66% 30.04 in 10.0 mi NNE 9.2 mph - N/A   Clear
11:35 PM 37.6 °F 32.3 °F 27.9 °F 68% 30.05 in 10.0 mi NNE 6.9 mph - N/A   Scattered Clouds
11:55 PM 37.6 °F 31.6 °F 28.8 °F 70% 30.04 in 10.0 mi NE 8.1 mph - N/A   Scattered Clouds